Location: Demmingen
(48.6757°N, 10.4375°E)
Time: 20:09:44
(UTC+00:00)

SL-16 R/B - Pass Details

Date: 12 August 2024
Orbit: 842 x 845 km, 71.0° (Epoch: 10 September)

Event Time Altitude Azimuth Distance (km) Brightness Sun altitude
Exits shadow 22:32:01 43° 95° (E) 1,172 2.7 -25.7°
Drops below altitude 10° 22:36:53 10° 39° (NE) 2,474 5.1 -25.9°
Sets 22:39:26 0° 33° (NNE) 3,414 6.0 -26.0°
